Accueil
METAR-TAF:

METAR-TAF

Aéroports :

Monte Terminillo, Italie

latitude: 42-28N, longitude: 012-59E, altitude: 1874 m

Observation

Le bulletin a été fait il y a 1 heure et 18 minutes, à 15:55 UTC
Vent 23 kt de sud/sud-ouest avec des rafales jusqu'à 37 kt
Température 2°C
Humidité 100%
Pression 1005 hPa

METAR: LIRK 051555Z AUTO 20023G37KT //// 02/02 Q1005

Heure: 18:13 (17:13 UTC)


TAF: absent

Observations et prévisions météorologiques de plus de 4000 aéroports (messages METAR et TAF).

Les stations disponibles sont représentées par des disques jaunes et rouges sur la carte.

Passer la souris dessus pour voir le nom de la station.

Cliquer dessus pour voir les observations et prévisions météorologiques.

Pour changer de carte: cliquez sur les boutons verts avec une croix noire pour zoomer, sur le bouton vert avec un tiret pour effectuer un zoom arrière, ou sur les flèches vertes pour les cartes adjacentes.


METAR-TAF: